Starlink 32316

operational
NORAD ID: 61860 Int'l Des: 2024-202 Owner: SPXS Country: US Constellation: starlink
LEOCIRCULAR

Über Starlink 32316

Beschreibung wird geladen...

Live-Position

3D-Globus wird geladen...

Nächste Überflüge

Höhenverlauf

Altitude vs Time

uPlot chart will show altitude changes over time

Zweizeiliger Elementsatz

1 61860U 24202R 25306.07939900 .00005365 00000-0 20447-3 0 9993
2 61860 43.0014 235.0014 0001813 257.6461 102.4188 15.27557259 55859
Epoch: 2. Nov. 2025 • Age: 34 hours

Aktueller Status

Höhe 490.3 km
Geschwindigkeit 7.62 km/s
Subsatellitenpunkt -30.16°S, 37.73°W
Startdatum 7. Nov. 2024
Alter 0.9 years
Typ internet

Technische Details

Klassifizierung Payload
Masse 730.00 kg
Trockenmasse 700.00 kg
Gesamtmasse 730.00 kg
Länge 0.30 m
Durchmesser 4.10 m
Spannweite 29.00 m
Form Box + pan
Hersteller SPXS
Bus-Typ Starlink V2M
Phasenstatus In Orbit
Besitzer/Staat SPXS/US

Große Konstellationen

Loading constellations...